Year,Month,Day,Hour,Minute,Value (Times are PST for temperature in C)
2010,09,30,00,00,7.90
2010,09,30,00,01,7.90
2010,09,30,00,02,7.90
2010,09,30,00,03,7.80
2010,09,30,00,04,7.80
2010,09,30,00,05,7.80
2010,09,30,00,06,7.80
2010,09,30,00,07,7.80
2010,09,30,00,08,7.80
2010,09,30,00,09,7.80
2010,09,30,00,10,7.80
2010,09,30,00,11,7.80
2010,09,30,00,12,7.80
2010,09,30,00,13,7.80
2010,09,30,00,14,7.80
2010,09,30,00,15,7.80
2010,09,30,00,16,7.80
2010,09,30,00,17,7.80
2010,09,30,00,18,7.80
2010,09,30,00,19,7.80
2010,09,30,00,20,7.80
2010,09,30,00,21,7.80
2010,09,30,00,22,7.80
2010,09,30,00,23,7.80
2010,09,30,00,24,7.80
2010,09,30,00,25,7.80
2010,09,30,00,26,7.80
2010,09,30,00,27,7.70
2010,09,30,00,28,7.70
2010,09,30,00,29,7.70
2010,09,30,00,30,7.60
2010,09,30,00,31,7.60
2010,09,30,00,32,7.60
2010,09,30,00,33,7.60
2010,09,30,00,34,7.60
2010,09,30,00,35,7.60
2010,09,30,00,36,7.60
2010,09,30,00,37,7.60
2010,09,30,00,38,7.60
2010,09,30,00,39,7.60
2010,09,30,00,40,7.60
2010,09,30,00,41,7.60
2010,09,30,00,42,7.60
2010,09,30,00,43,7.60
2010,09,30,00,44,7.60
2010,09,30,00,45,7.60
2010,09,30,00,46,7.60
2010,09,30,00,47,7.60
2010,09,30,00,48,7.60
2010,09,30,00,49,7.60
2010,09,30,00,50,7.60
2010,09,30,00,51,7.60
2010,09,30,00,52,7.60
2010,09,30,00,53,7.60
2010,09,30,00,54,7.60
2010,09,30,00,55,7.60
2010,09,30,00,56,7.60
2010,09,30,09,25,14.00
2010,09,30,09,26,14.00
2010,09,30,09,27,14.10
2010,09,30,09,28,14.20
2010,09,30,09,29,14.20
2010,09,30,09,30,14.20
2010,09,30,09,31,14.30
2010,09,30,09,32,14.40
2010,09,30,09,33,14.40
2010,09,30,09,34,14.50
2010,09,30,09,35,14.50
2010,09,30,09,36,14.50
2010,09,30,09,37,14.60
2010,09,30,09,38,14.60
2010,09,30,09,39,14.70
2010,09,30,09,40,14.80
2010,09,30,09,41,14.80
2010,09,30,09,42,14.80
2010,09,30,09,43,14.90
2010,09,30,09,44,15.00
2010,09,30,09,45,15.10
2010,09,30,09,46,15.10
2010,09,30,09,47,15.20
2010,09,30,09,48,15.20
2010,09,30,09,49,15.30
2010,09,30,09,50,15.30
2010,09,30,09,51,15.40
2010,09,30,09,52,15.40
2010,09,30,09,53,15.50
2010,09,30,09,54,15.50
2010,09,30,09,55,15.60
2010,09,30,09,56,15.60
2010,09,30,09,57,15.60
2010,09,30,09,58,15.70
2010,09,30,09,59,15.80
2010,09,30,10,00,15.80
2010,09,30,10,01,15.80
2010,09,30,10,02,15.90
2010,09,30,10,03,16.00
2010,09,30,10,04,16.10
2010,09,30,10,05,16.10
2010,09,30,10,06,16.20
2010,09,30,10,07,16.30
2010,09,30,10,08,16.30
2010,09,30,10,09,16.40
2010,09,30,10,10,16.40
2010,09,30,10,11,16.50
2010,09,30,10,12,16.60
2010,09,30,10,13,16.70
2010,09,30,10,14,16.70
2010,09,30,10,15,16.70
2010,09,30,10,16,16.70
2010,09,30,10,17,16.70
2010,09,30,10,18,16.70
2010,09,30,10,19,16.70
2010,09,30,10,20,16.70
2010,09,30,10,21,16.70
2010,09,30,10,22,16.70
2010,09,30,10,23,16.70
2010,09,30,10,24,16.70
2010,09,30,10,25,16.70
2010,09,30,10,26,16.70
2010,09,30,10,27,16.70
2010,09,30,10,28,16.70
2010,09,30,10,29,16.70
2010,09,30,10,30,16.80
2010,09,30,10,31,16.80
2010,09,30,10,32,16.90
2010,09,30,10,33,16.90
2010,09,30,10,34,17.00
2010,09,30,10,35,17.00
2010,09,30,10,36,17.10
2010,09,30,10,37,17.20
2010,09,30,10,38,17.30
2010,09,30,10,39,17.30
2010,09,30,10,40,17.30
2010,09,30,10,41,17.40
2010,09,30,10,42,17.40
2010,09,30,10,43,17.40
2010,09,30,10,44,17.30
2010,09,30,10,45,17.30
2010,09,30,10,46,17.30
2010,09,30,10,47,17.30
2010,09,30,10,48,17.30
2010,09,30,10,49,17.40
2010,09,30,10,50,17.40
2010,09,30,10,51,17.50
2010,09,30,10,52,17.60
2010,09,30,10,53,17.70
2010,09,30,10,54,17.70
2010,09,30,10,55,17.80
2010,09,30,10,56,17.80
2010,09,30,10,57,17.90
2010,09,30,10,58,17.90
2010,09,30,10,59,17.90
2010,09,30,11,00,17.90
2010,09,30,11,01,18.00
2010,09,30,11,02,18.10
2010,09,30,11,03,18.10
2010,09,30,11,04,18.10
2010,09,30,11,05,18.10
2010,09,30,11,06,18.10
2010,09,30,11,07,18.20
2010,09,30,11,08,18.20
2010,09,30,11,09,18.20
2010,09,30,11,10,18.30
2010,09,30,11,11,18.40
2010,09,30,11,12,18.40
2010,09,30,11,13,18.50
2010,09,30,11,14,18.50
2010,09,30,11,15,18.60
2010,09,30,11,16,18.60
2010,09,30,11,17,18.70
2010,09,30,11,18,18.70
2010,09,30,11,19,18.70
2010,09,30,11,20,18.80
2010,09,30,11,21,18.80
2010,09,30,11,22,18.80
2010,09,30,11,23,18.80
2010,09,30,11,24,18.80
2010,09,30,11,25,18.80
2010,09,30,11,26,18.80
2010,09,30,11,27,18.80
2010,09,30,11,28,18.80
2010,09,30,11,29,18.80
2010,09,30,11,30,18.90
2010,09,30,11,31,18.90
2010,09,30,11,32,18.80
2010,09,30,11,33,18.80
2010,09,30,11,34,18.90
2010,09,30,11,35,18.90
2010,09,30,11,36,18.90
2010,09,30,11,37,18.90
2010,09,30,11,38,19.00
2010,09,30,11,39,19.10
2010,09,30,11,40,19.10
2010,09,30,11,41,19.20
2010,09,30,11,42,19.20
2010,09,30,11,43,19.20
2010,09,30,11,44,19.30
2010,09,30,11,45,19.30
2010,09,30,11,46,19.30
2010,09,30,11,47,19.30
2010,09,30,11,48,19.30
2010,09,30,11,49,19.30
2010,09,30,11,50,19.30
2010,09,30,11,51,19.30
2010,09,30,11,52,19.40
2010,09,30,11,53,19.40
2010,09,30,11,54,19.40
2010,09,30,11,55,19.50
2010,09,30,11,56,19.50
2010,09,30,11,57,19.60
2010,09,30,11,58,19.60
2010,09,30,11,59,19.60
2010,09,30,12,00,19.60
2010,09,30,12,01,19.70
2010,09,30,12,02,19.70
2010,09,30,12,03,19.80
2010,09,30,12,04,19.80
2010,09,30,12,05,19.90
2010,09,30,12,06,19.90
2010,09,30,12,07,20.00
2010,09,30,12,08,20.10
2010,09,30,12,09,20.10
2010,09,30,12,10,20.10
2010,09,30,12,11,20.10
2010,09,30,12,12,20.10
2010,09,30,12,13,20.10
2010,09,30,12,14,20.10
2010,09,30,12,15,20.10
2010,09,30,12,16,20.10
2010,09,30,12,17,20.10
2010,09,30,12,18,20.10
2010,09,30,12,19,20.10
2010,09,30,12,20,20.20
2010,09,30,12,21,20.20
2010,09,30,12,22,20.20
2010,09,30,12,23,20.30
2010,09,30,12,24,20.30
2010,09,30,12,25,20.30
2010,09,30,12,26,20.30
2010,09,30,12,27,20.40
2010,09,30,12,28,20.40
2010,09,30,12,29,20.50
2010,09,30,12,30,20.60
2010,09,30,12,31,20.70
2010,09,30,12,32,20.70
2010,09,30,12,33,20.80
2010,09,30,12,34,20.90
2010,09,30,12,35,21.00
2010,09,30,12,36,21.00
2010,09,30,12,37,21.10
2010,09,30,12,38,21.20
2010,09,30,12,39,21.20
2010,09,30,12,40,21.10
2010,09,30,12,41,21.10
2010,09,30,12,42,21.00
2010,09,30,12,43,21.00
2010,09,30,12,44,21.00
2010,09,30,12,45,20.90
2010,09,30,12,46,20.90
2010,09,30,12,47,21.00
2010,09,30,12,48,21.10
2010,09,30,12,49,21.20
2010,09,30,12,50,21.30
2010,09,30,12,51,21.30
2010,09,30,12,52,21.50
2010,09,30,12,53,21.60
2010,09,30,12,54,21.60
2010,09,30,12,55,21.60
2010,09,30,12,56,21.60
2010,09,30,12,57,21.60
2010,09,30,12,58,21.60
2010,09,30,12,59,21.60
2010,09,30,13,00,21.60
2010,09,30,13,01,21.60
2010,09,30,13,02,21.60
2010,09,30,13,03,21.70
2010,09,30,13,04,21.70
2010,09,30,13,05,21.70
2010,09,30,13,06,21.60
2010,09,30,13,07,21.60
2010,09,30,13,08,21.60
2010,09,30,13,09,21.60
2010,09,30,13,10,21.60
2010,09,30,13,11,21.60
2010,09,30,13,12,21.60
2010,09,30,13,13,21.60
2010,09,30,13,14,21.60
2010,09,30,13,15,21.60
2010,09,30,13,16,21.60
2010,09,30,13,17,21.60
2010,09,30,13,18,21.70
2010,09,30,13,19,21.70
2010,09,30,13,20,21.80
2010,09,30,13,21,21.90
2010,09,30,13,22,21.90
2010,09,30,13,23,21.90
2010,09,30,13,24,21.90
2010,09,30,13,25,22.00
2010,09,30,13,26,22.00
2010,09,30,13,27,22.00
2010,09,30,13,28,22.10
2010,09,30,13,29,22.20
2010,09,30,13,30,22.20
2010,09,30,13,31,22.30
2010,09,30,13,32,22.40
2010,09,30,13,33,22.50
2010,09,30,13,34,22.50
2010,09,30,13,35,22.60
2010,09,30,13,36,22.70
2010,09,30,13,37,22.70
2010,09,30,13,38,22.80
2010,09,30,13,39,22.80
2010,09,30,13,40,22.90
2010,09,30,13,41,22.90
2010,09,30,13,42,22.90
2010,09,30,13,43,22.90
2010,09,30,13,44,23.00
2010,09,30,13,45,23.10
2010,09,30,13,46,23.10
2010,09,30,13,47,23.10
2010,09,30,13,48,23.10
2010,09,30,13,49,23.10
2010,09,30,13,50,23.10
2010,09,30,13,51,23.10
2010,09,30,13,52,23.10
2010,09,30,13,53,23.00
2010,09,30,13,54,22.90
2010,09,30,13,55,22.90
2010,09,30,13,56,22.90
2010,09,30,13,57,22.80
2010,09,30,13,58,22.80
2010,09,30,13,59,22.80
2010,09,30,14,00,22.70
2010,09,30,14,01,22.50
2010,09,30,14,02,22.40
2010,09,30,14,03,22.30
2010,09,30,14,04,22.20
2010,09,30,14,05,22.10
2010,09,30,14,06,22.10
2010,09,30,14,07,22.10
2010,09,30,14,08,22.10
2010,09,30,14,09,22.00
2010,09,30,14,10,21.90
2010,09,30,14,11,21.90
2010,09,30,14,12,21.90
2010,09,30,14,13,21.80
2010,09,30,14,14,21.80
2010,09,30,14,15,21.70
2010,09,30,14,16,21.70
2010,09,30,14,17,21.70
2010,09,30,14,18,21.70
2010,09,30,14,19,21.70
2010,09,30,14,20,21.70
2010,09,30,14,21,21.60
2010,09,30,14,22,21.60
2010,09,30,14,23,21.60
2010,09,30,14,24,21.50
2010,09,30,14,25,21.40
2010,09,30,14,26,21.40
2010,09,30,14,27,21.30
2010,09,30,14,28,21.30
2010,09,30,14,29,21.40
2010,09,30,14,30,21.40
2010,09,30,14,31,21.40
2010,09,30,14,32,21.40
2010,09,30,14,33,21.30
2010,09,30,14,34,21.30
2010,09,30,14,35,21.30
2010,09,30,14,36,21.30
2010,09,30,14,37,21.30
2010,09,30,14,38,21.30
2010,09,30,14,39,21.30
2010,09,30,14,40,21.30
2010,09,30,14,41,21.30
2010,09,30,14,42,21.30
2010,09,30,14,43,21.30
2010,09,30,14,44,21.30
2010,09,30,14,45,21.30
2010,09,30,14,46,21.30
2010,09,30,14,47,21.30
2010,09,30,14,48,21.30
2010,09,30,14,49,21.30
2010,09,30,14,50,21.20
2010,09,30,14,51,21.10
2010,09,30,14,52,21.00
2010,09,30,14,53,21.00
2010,09,30,14,54,21.00
2010,09,30,14,55,21.00
2010,09,30,14,56,21.00
2010,09,30,14,57,21.00
2010,09,30,14,58,21.00
2010,09,30,14,59,21.00
2010,09,30,15,00,20.90
2010,09,30,15,01,20.90
2010,09,30,15,02,20.90
2010,09,30,15,03,20.90
2010,09,30,15,04,20.90
2010,09,30,15,05,20.90
2010,09,30,15,06,20.90
2010,09,30,15,07,20.90
2010,09,30,15,08,21.00
2010,09,30,15,09,21.00
2010,09,30,15,10,21.10
2010,09,30,15,11,21.10
2010,09,30,15,12,21.20
2010,09,30,15,13,21.20
2010,09,30,15,14,21.30
2010,09,30,15,15,21.30
2010,09,30,15,16,21.30
2010,09,30,15,17,21.30
2010,09,30,15,18,21.30
2010,09,30,15,19,21.30
2010,09,30,15,20,21.30
2010,09,30,15,21,21.30
2010,09,30,15,22,21.30
2010,09,30,15,23,21.30
2010,09,30,15,24,21.30
2010,09,30,15,25,21.30
2010,09,30,15,26,21.40
2010,09,30,15,27,21.40
2010,09,30,15,28,21.40
2010,09,30,15,29,21.30
2010,09,30,15,30,21.30
2010,09,30,15,31,21.30
2010,09,30,15,32,21.20
2010,09,30,15,33,21.20
2010,09,30,15,34,21.20
2010,09,30,15,35,21.20
2010,09,30,15,36,21.20
2010,09,30,15,37,21.20
2010,09,30,15,38,21.30
2010,09,30,15,39,21.30
2010,09,30,15,40,21.30
2010,09,30,15,41,21.30
2010,09,30,15,42,21.30
2010,09,30,15,43,21.20
2010,09,30,15,44,21.20
2010,09,30,15,45,21.20
2010,09,30,15,46,21.20
2010,09,30,15,47,21.30
2010,09,30,15,48,21.30
2010,09,30,15,49,21.30
2010,09,30,15,50,21.20
2010,09,30,15,51,21.20
2010,09,30,15,52,21.20
2010,09,30,15,53,21.20
2010,09,30,15,54,21.10
2010,09,30,15,55,21.10
2010,09,30,15,56,21.10
2010,09,30,15,57,21.10
2010,09,30,15,58,21.10
2010,09,30,15,59,21.10
2010,09,30,16,00,21.10
2010,09,30,16,01,21.10
2010,09,30,16,02,21.10
2010,09,30,16,03,21.00
2010,09,30,16,04,21.00
2010,09,30,16,05,21.00
2010,09,30,16,06,21.00
2010,09,30,16,07,21.00
2010,09,30,16,08,21.10
2010,09,30,16,09,21.00
2010,09,30,16,10,21.00
2010,09,30,16,11,21.10
2010,09,30,16,12,21.00
2010,09,30,16,13,21.00
2010,09,30,16,14,21.00
2010,09,30,16,15,21.00
2010,09,30,16,16,21.00
2010,09,30,16,17,20.90
2010,09,30,16,18,20.90
2010,09,30,16,19,20.90
2010,09,30,16,20,20.90
2010,09,30,16,21,20.90
2010,09,30,16,22,20.90
2010,09,30,16,23,20.90
2010,09,30,16,24,20.90
2010,09,30,16,25,20.90
2010,09,30,16,26,20.90
2010,09,30,16,27,20.90
2010,09,30,16,28,20.90
2010,09,30,16,29,21.00
2010,09,30,16,30,21.00
2010,09,30,16,31,21.00
2010,09,30,16,32,21.00
2010,09,30,16,33,21.00
2010,09,30,16,34,21.00
2010,09,30,16,35,21.00
2010,09,30,16,36,21.10
2010,09,30,16,37,21.10
2010,09,30,16,38,21.10
2010,09,30,16,39,21.10
2010,09,30,16,40,21.10
2010,09,30,16,41,21.10
2010,09,30,16,42,21.10
2010,09,30,16,43,21.10
2010,09,30,16,44,21.10
2010,09,30,16,45,21.10
2010,09,30,16,46,21.10
2010,09,30,16,47,21.10
2010,09,30,16,48,21.10
2010,09,30,16,49,21.20
2010,09,30,16,50,21.20
2010,09,30,16,51,21.20
2010,09,30,16,52,21.20
2010,09,30,16,53,21.20
2010,09,30,16,54,21.20
2010,09,30,16,55,21.20
2010,09,30,16,56,21.20
2010,09,30,16,57,21.20
2010,09,30,16,58,21.20
2010,09,30,16,59,21.20
2010,09,30,17,00,21.20
2010,09,30,17,01,21.30
2010,09,30,17,02,21.20
2010,09,30,17,03,21.20
2010,09,30,17,04,21.30
2010,09,30,17,05,21.30
2010,09,30,17,06,21.30
2010,09,30,17,07,21.30
2010,09,30,17,08,21.30
2010,09,30,17,09,21.40
2010,09,30,17,10,21.40
2010,09,30,17,11,21.50
2010,09,30,17,12,21.60
2010,09,30,17,13,21.60
2010,09,30,17,14,21.60
2010,09,30,17,15,21.60
2010,09,30,17,16,21.60
2010,09,30,17,17,21.60
2010,09,30,17,18,21.70
2010,09,30,17,19,21.70
2010,09,30,17,20,21.80
2010,09,30,17,21,21.80
2010,09,30,17,22,21.80
2010,09,30,17,23,21.80
2010,09,30,17,24,21.80
2010,09,30,17,25,21.80
2010,09,30,17,26,21.90
2010,09,30,17,27,21.90
2010,09,30,17,28,21.90
2010,09,30,17,29,21.90
2010,09,30,17,30,21.90
2010,09,30,17,31,21.90
2010,09,30,17,32,21.80
2010,09,30,17,33,21.80
2010,09,30,17,34,21.70
2010,09,30,17,35,21.70
2010,09,30,17,36,21.70
2010,09,30,17,37,21.60
2010,09,30,17,38,21.60
2010,09,30,17,39,21.60
2010,09,30,17,40,21.60
2010,09,30,17,41,21.60
2010,09,30,17,42,21.60
2010,09,30,17,43,21.60
2010,09,30,17,44,21.50
2010,09,30,17,45,21.40
2010,09,30,17,46,21.40
2010,09,30,17,47,21.40
2010,09,30,17,48,21.40
2010,09,30,17,49,21.40
2010,09,30,17,50,21.50
2010,09,30,17,51,21.40
2010,09,30,17,52,21.40
2010,09,30,17,53,21.40
2010,09,30,17,54,21.40
2010,09,30,17,55,21.40
2010,09,30,17,56,21.40
2010,09,30,17,57,21.30
2010,09,30,17,58,21.30
2010,09,30,17,59,21.30
2010,09,30,18,00,21.30
2010,09,30,18,01,21.30
2010,09,30,18,02,21.30
2010,09,30,18,03,21.30
2010,09,30,18,04,21.30
2010,09,30,18,05,21.30
2010,09,30,18,06,21.20
2010,09,30,18,07,21.20
2010,09,30,18,08,21.20
2010,09,30,18,09,21.10
2010,09,30,18,10,21.00
2010,09,30,18,11,21.00
2010,09,30,18,12,20.90
2010,09,30,18,13,20.80
2010,09,30,18,14,20.70
2010,09,30,18,15,20.60
2010,09,30,18,16,20.50
2010,09,30,18,17,20.40
2010,09,30,18,18,20.30
2010,09,30,18,19,20.20
2010,09,30,18,20,20.10
2010,09,30,18,21,19.90
2010,09,30,18,22,19.90
2010,09,30,18,23,19.70
2010,09,30,18,24,19.60
2010,09,30,18,25,19.50
2010,09,30,18,26,19.40
2010,09,30,18,27,19.30
2010,09,30,18,28,19.20
2010,09,30,18,29,19.10
2010,09,30,18,30,18.90
2010,09,30,18,31,18.80
2010,09,30,18,32,18.70
2010,09,30,18,33,18.60
2010,09,30,18,34,18.50
2010,09,30,18,35,18.40
2010,09,30,18,36,18.20
2010,09,30,18,37,18.10
2010,09,30,18,38,18.10
2010,09,30,18,39,17.90
2010,09,30,18,40,17.90
2010,09,30,18,41,17.80
2010,09,30,18,42,17.70
2010,09,30,18,43,17.70
2010,09,30,18,44,17.60
2010,09,30,18,45,17.50
2010,09,30,18,46,17.50
2010,09,30,18,47,17.40
2010,09,30,18,48,17.30
2010,09,30,18,49,17.30
2010,09,30,18,50,17.30
2010,09,30,18,51,17.20
2010,09,30,18,52,17.10
2010,09,30,18,53,17.00
2010,09,30,18,54,16.90
2010,09,30,18,55,16.90
2010,09,30,18,56,16.80
2010,09,30,18,57,16.70
2010,09,30,18,58,16.70
2010,09,30,18,59,16.60
2010,09,30,19,00,16.50
2010,09,30,19,01,16.40
2010,09,30,19,02,16.40
2010,09,30,19,03,16.30
2010,09,30,19,04,16.30
2010,09,30,19,05,16.20
2010,09,30,19,06,16.20
2010,09,30,19,07,16.10
2010,09,30,19,08,16.10
2010,09,30,19,09,16.00
2010,09,30,19,10,15.90
2010,09,30,19,11,15.90
2010,09,30,19,12,15.80
2010,09,30,19,13,15.80
2010,09,30,19,14,15.80
2010,09,30,19,15,15.70
2010,09,30,19,16,15.60
2010,09,30,19,17,15.50
2010,09,30,19,18,15.50
2010,09,30,19,19,15.40
2010,09,30,19,20,15.40
2010,09,30,19,21,15.30
2010,09,30,19,22,15.30
2010,09,30,19,23,15.30
2010,09,30,19,24,15.20
2010,09,30,19,25,15.10
2010,09,30,19,26,15.10
2010,09,30,19,27,15.00
2010,09,30,19,28,14.90
2010,09,30,19,29,14.90
2010,09,30,19,30,14.80
2010,09,30,19,31,14.80
2010,09,30,19,32,14.80
2010,09,30,19,33,14.70
2010,09,30,19,34,14.70
2010,09,30,19,35,14.60
2010,09,30,19,36,14.60
2010,09,30,19,37,14.60
2010,09,30,19,38,14.50
2010,09,30,19,39,14.50
2010,09,30,19,40,14.50
2010,09,30,19,41,14.40
2010,09,30,19,42,14.40
2010,09,30,19,43,14.30
2010,09,30,19,44,14.30
2010,09,30,19,45,14.20
2010,09,30,19,46,14.20
2010,09,30,19,47,14.10
2010,09,30,19,48,14.10
2010,09,30,19,49,14.00
2010,09,30,19,50,14.00
2010,09,30,19,51,13.90
2010,09,30,19,52,13.90
2010,09,30,19,53,13.80
2010,09,30,19,54,13.80
2010,09,30,19,55,13.70
2010,09,30,19,56,13.70
2010,09,30,19,57,13.70
2010,09,30,19,58,13.70
2010,09,30,19,59,13.70
2010,09,30,20,00,13.60
2010,09,30,20,01,13.50
2010,09,30,20,02,13.50
2010,09,30,20,03,13.40
2010,09,30,20,04,13.30
2010,09,30,20,05,13.30
2010,09,30,20,06,13.20
2010,09,30,20,07,13.20
2010,09,30,20,08,13.10
2010,09,30,20,09,13.10
2010,09,30,20,10,13.10
2010,09,30,20,11,13.00
2010,09,30,20,12,13.00
2010,09,30,20,13,13.00
2010,09,30,20,14,12.90
2010,09,30,20,15,12.90
2010,09,30,20,16,12.90
2010,09,30,20,17,12.80
2010,09,30,20,18,12.80
2010,09,30,20,19,12.80
2010,09,30,20,20,12.80
2010,09,30,20,21,12.80
2010,09,30,20,22,12.80
2010,09,30,20,23,12.70
2010,09,30,20,24,12.70
2010,09,30,20,25,12.70
2010,09,30,20,26,12.60
2010,09,30,20,27,12.60
2010,09,30,20,28,12.60
2010,09,30,20,29,12.60
2010,09,30,20,30,12.50
2010,09,30,20,31,12.50
2010,09,30,20,32,12.50
2010,09,30,20,33,12.40
2010,09,30,20,34,12.40
2010,09,30,20,35,12.40
2010,09,30,20,36,12.40
2010,09,30,20,37,12.30
2010,09,30,20,38,12.30
2010,09,30,20,39,12.30
2010,09,30,20,40,12.30
2010,09,30,20,41,12.30
2010,09,30,20,42,12.30
2010,09,30,20,43,12.20
2010,09,30,20,44,12.20
2010,09,30,20,45,12.20
2010,09,30,20,46,12.20
2010,09,30,20,47,12.20
2010,09,30,20,48,12.10
2010,09,30,20,49,12.10
2010,09,30,20,50,12.10
2010,09,30,20,51,12.00
2010,09,30,20,52,12.00
2010,09,30,20,53,12.00
2010,09,30,20,54,12.00
2010,09,30,20,55,11.90
2010,09,30,20,56,11.90
2010,09,30,20,57,11.90
2010,09,30,20,58,11.90
2010,09,30,20,59,11.80
2010,09,30,21,00,11.80
2010,09,30,21,01,11.80
2010,09,30,21,02,11.80
2010,09,30,21,03,11.80
2010,09,30,21,04,11.80
2010,09,30,21,05,11.80
2010,09,30,21,06,11.80
2010,09,30,21,07,11.80
2010,09,30,21,08,11.80
2010,09,30,21,09,11.80
2010,09,30,21,10,11.70
2010,09,30,21,11,11.70
2010,09,30,21,12,11.70
2010,09,30,21,13,11.70
2010,09,30,21,14,11.70
2010,09,30,21,15,11.60
2010,09,30,21,16,11.60
2010,09,30,21,17,11.60
2010,09,30,21,18,11.60
2010,09,30,21,19,11.60
2010,09,30,21,20,11.60
2010,09,30,21,21,11.60
2010,09,30,21,22,11.50
2010,09,30,21,23,11.40
2010,09,30,21,24,11.40
2010,09,30,21,25,11.40
2010,09,30,21,26,11.40
2010,09,30,21,27,11.40
2010,09,30,21,28,11.40
2010,09,30,21,29,11.40
2010,09,30,21,30,11.40
2010,09,30,21,31,11.40
2010,09,30,21,32,11.30
2010,09,30,21,33,11.30
2010,09,30,21,34,11.30
2010,09,30,21,35,11.20
2010,09,30,21,36,11.20
2010,09,30,21,37,11.20
2010,09,30,21,38,11.20
2010,09,30,21,39,11.20
2010,09,30,21,40,11.20
2010,09,30,21,41,11.10
2010,09,30,21,42,11.10
2010,09,30,21,43,11.10
2010,09,30,21,44,11.10
2010,09,30,21,45,11.10
2010,09,30,21,46,11.10
2010,09,30,21,47,11.10
2010,09,30,21,48,11.00
2010,09,30,21,49,10.90
2010,09,30,21,50,10.90
2010,09,30,21,51,10.90
2010,09,30,21,52,10.90
2010,09,30,21,53,10.90
2010,09,30,21,54,10.90
2010,09,30,21,55,10.80
2010,09,30,21,56,10.80
2010,09,30,21,57,10.80
2010,09,30,21,58,10.80
2010,09,30,21,59,10.80
2010,09,30,22,00,10.80
2010,09,30,22,01,10.80
2010,09,30,22,02,10.80
2010,09,30,22,03,10.80
2010,09,30,22,04,10.80
2010,09,30,22,05,10.80
2010,09,30,22,06,10.70
2010,09,30,22,07,10.70
2010,09,30,22,08,10.70
2010,09,30,22,09,10.70
2010,09,30,22,10,10.70
2010,09,30,22,11,10.60
2010,09,30,22,12,10.60
2010,09,30,22,13,10.60
2010,09,30,22,14,10.60
2010,09,30,22,15,10.60
2010,09,30,22,16,10.60
2010,09,30,22,17,10.60
2010,09,30,22,18,10.60
2010,09,30,22,19,10.60
2010,09,30,22,20,10.50
2010,09,30,22,21,10.40
2010,09,30,22,22,10.40
2010,09,30,22,23,10.40
2010,09,30,22,24,10.40
2010,09,30,22,25,10.40
2010,09,30,22,26,10.40
2010,09,30,22,27,10.40
2010,09,30,22,28,10.30
2010,09,30,22,29,10.30
2010,09,30,22,30,10.30
2010,09,30,22,31,10.30
2010,09,30,22,32,10.30
2010,09,30,22,33,10.20
2010,09,30,22,34,10.20
2010,09,30,22,35,10.20
2010,09,30,22,36,10.20
2010,09,30,22,37,10.20
2010,09,30,22,38,10.20
2010,09,30,22,39,10.20
2010,09,30,22,40,10.20
2010,09,30,22,41,10.20
2010,09,30,22,42,10.20
2010,09,30,22,43,10.20
2010,09,30,22,44,10.20
2010,09,30,22,45,10.10
2010,09,30,22,46,10.10
2010,09,30,22,47,10.10
2010,09,30,22,48,10.10
2010,09,30,22,49,10.10
2010,09,30,22,50,10.10
2010,09,30,22,51,10.10
2010,09,30,22,52,10.10
2010,09,30,22,53,10.10
2010,09,30,22,54,10.10
2010,09,30,22,55,10.10
2010,09,30,22,56,10.10
2010,09,30,22,57,10.00
2010,09,30,22,58,9.90
2010,09,30,22,59,9.90
2010,09,30,23,00,9.90
2010,09,30,23,01,9.90
2010,09,30,23,02,9.90
2010,09,30,23,03,9.90
2010,09,30,23,04,9.90
2010,09,30,23,05,9.90
2010,09,30,23,06,9.90
2010,09,30,23,07,9.90
2010,09,30,23,08,9.90
2010,09,30,23,09,9.80
2010,09,30,23,10,9.80
2010,09,30,23,11,9.80
2010,09,30,23,12,9.80
2010,09,30,23,13,9.80
2010,09,30,23,14,9.80
2010,09,30,23,15,9.80
2010,09,30,23,16,9.80
2010,09,30,23,17,9.80
2010,09,30,23,18,9.70
2010,09,30,23,19,9.70
2010,09,30,23,20,9.70
2010,09,30,23,21,9.70
2010,09,30,23,22,9.70
2010,09,30,23,23,9.70
2010,09,30,23,24,9.70
2010,09,30,23,25,9.70
2010,09,30,23,26,9.60
2010,09,30,23,27,9.60
2010,09,30,23,28,9.60
2010,09,30,23,29,9.60
2010,09,30,23,30,9.60
2010,09,30,23,31,9.60
2010,09,30,23,32,9.50
2010,09,30,23,33,9.50
2010,09,30,23,34,9.50
2010,09,30,23,35,9.50
2010,09,30,23,36,9.50
2010,09,30,23,37,9.40
2010,09,30,23,38,9.40
2010,09,30,23,39,9.40
2010,09,30,23,40,9.40
2010,09,30,23,41,9.40
2010,09,30,23,42,9.40
2010,09,30,23,43,9.40
2010,09,30,23,44,9.40
2010,09,30,23,45,9.40
2010,09,30,23,46,9.40
2010,09,30,23,47,9.40
2010,09,30,23,48,9.40
2010,09,30,23,49,9.30
2010,09,30,23,50,9.30
2010,09,30,23,51,9.30
2010,09,30,23,52,9.30
2010,09,30,23,53,9.30
2010,09,30,23,54,9.20
2010,09,30,23,55,9.20
2010,09,30,23,56,9.20
2010,09,30,23,57,9.20
2010,09,30,23,58,9.20
2010,09,30,23,59,9.20
